Location: Pinhead Observatory
(34.4473°N, 118.1985°W)
Time: 07:34:36
(UTC-07:00)

CZ-4C R/B - Visible Passes

Search period start: 22 May 2015 00:00
Search period end: 01 June 2015 00:00
Orbit: 771 x 1232 km, 63.4° (Epoch: 20 May)

Date Brightness Start Highest point End Pass type
(mag) Time Alt. Az. Time Alt. Az. Time Alt. Az.
22 May 5.5 02:04:42 10° N 02:08:17 15° NE 02:12:21 10° ENE visible
22 May 3.3 03:51:09 10° NNW 03:58:15 66° ENE 04:05:55 10° SE visible
22 May 5.8 21:06:06 10° NW 21:06:33 10° NNW 21:06:43 10° NNW visible
23 May 4.7 02:36:56 10° N 02:42:48 28° NE 02:49:13 10° ESE visible
23 May 2.9 04:24:46 10° NW 04:31:54 63° WSW 04:39:30 10° SSE visible
24 May 5.5 01:24:04 10° NNE 01:26:40 12° NE 01:29:43 10° ENE visible
24 May 3.5 03:09:55 10° NNW 03:16:53 55° NE 03:24:24 10° SE visible
24 May 3.6 04:59:08 10° NW 05:05:21 29° WSW 05:11:40 10° SSW visible
24 May 5.4 20:22:35 10° WNW 20:24:56 12° NW 20:27:07 10° NNW visible
25 May 4.8 01:55:52 10° N 02:01:18 24° NE 02:07:16 10° E visible
25 May 2.8 03:43:23 10° NW 03:50:36 76° WSW 03:58:18 10° SSE visible
26 May 5.5 00:44:06 10° NNE 00:45:01 10° NNE 00:46:20 10° NE visible
26 May 3.8 02:28:43 10° NNW 02:35:29 46° NE 02:42:49 10° SE visible
26 May 3.4 04:17:30 10° NW 04:24:05 36° WSW 04:30:53 10° S visible
27 May 4.9 01:14:51 10° N 01:19:45 20° NE 01:25:11 10° E visible
27 May 2.8 03:02:03 10° NNW 03:09:17 89° WSW 03:17:02 10° SSE visible
27 May 4.2 04:53:10 10° WNW 04:57:27 15° WSW 05:01:20 10° SW visible
28 May 4.0 01:47:32 10° NNW 01:54:03 39° NE 02:01:08 10° ESE visible
28 May 3.2 03:35:59 10° NW 03:42:49 44° WSW 03:46:35 26° SSW visible
29 May 5.0 00:33:54 10° N 00:38:11 17° NE 00:42:58 10° E visible
29 May 2.9 02:20:45 10° NNW 02:27:56 77° ENE 02:31:28 36° SE visible
29 May 4.0 04:11:02 10° WNW 04:16:12 20° WSW 04:16:30 20° WSW visible
30 May 4.2 01:06:23 10° NNW 01:12:36 33° NE 01:17:10 18° E visible
30 May 3.0 02:54:30 10° NW 03:01:32 53° WSW 03:02:15 51° SW visible
30 May 5.1 23:53:05 10° N 23:56:36 15° NE 00:00:34 10° ENE visible
31 May 3.1 01:39:29 10° NNW 01:46:35 65° ENE 01:48:24 51° ESE visible
31 May 4.0 03:29:09 10° WNW 03:33:30 23° W 03:33:30 23° W visible
